GFSSW_850_rhum_363.txt.gz
RH
7 6 6 6 6 6 7 11 14 17 30 30 25 17 9 11 13 11 11 7 15 16 9 12 16 26 28 28 24 21 47 67 66 66 43 22 26 30 31 31 31 40 48 55 61
6 6 6 6 6 6 6 6 8 12 20 30 28 22 12 9 12 10 8 15 15 17 10 21 24 22 26 24 20 20 48 55 49 47 43 28 27 29 33 33 39 46 50 56 61
6 5 5 5 5 5 5 5 6 9 17 22 29 26 18 9 10 5 13 17 16 15 10 20 25 22 21 18 17 15 37 42 40 25 33 23 26 29 29 39 39 53 58 59 62
6 5 5 5 4 4 4 4 5 6 14 16 22 27 22 11 32 17 12 14 14 12 9 21 24 22 20 21 14 21 24 28 27 23 20 21 23 29 27 29 36 44 50 58 61
6 6 5 5 4 4 3 3 3 5 7 15 14 24 23 20 13 15 13 14 13 10 13 24 27 21 20 16 15 21 25 22 27 25 24 19 19 26 32 32 38 49 53 58 59
7 6 6 5 5 4 3 3 3 3 5 11 14 19 23 31 16 16 13 14 13 10 24 26 26 17 15 15 17 18 22 33 32 30 28 28 30 22 42 40 44 51 55 56 56
8 7 7 6 6 5 4 4 4 3 4 6 15 18 22 13 17 16 14 15 11 12 21 22 21 18 16 21 17 18 20 39 43 34 31 22 31 57 53 39 50 51 52 54 50
9 8 8 8 8 7 6 6 7 4 4 6 15 17 20 13 11 16 17 18 16 22 20 20 19 19 18 18 17 23 40 54 37 35 29 34 40 55 50 39 52 50 52 50 47
10 9 9 9 9 9 7 7 8 6 7 7 14 16 28 17 13 12 15 15 16 17 20 18 18 20 19 25 29 37 50 50 44 37 36 38 37 43 50 35 47 49 57 63 48
11 10 10 10 11 10 9 18 35 14 20 17 28 34 16 17 14 10 14 14 15 15 16 16 18 25 28 30 38 44 44 51 45 31 30 31 32 40 41 37 52 62 63 61 80
12 11 11 11 11 9 12 35 48 44 38 24 16 19 14 14 9 8 12 14 15 14 21 16 26 33 28 25 21 34 33 47 39 30 32 29 26 56 44 39 46 48 52 67 67
13 12 12 12 12 10 39 53 48 55 48 26 20 23 18 14 12 9 11 16 16 23 19 22 28 23 20 19 20 21 25 32 32 24 30 26 22 44 55 48 50 54 58 72 61
15 13 12 13 11 28 62 49 65 54 65 30 10 20 19 16 16 12 11 16 20 26 23 27 24 18 19 21 21 20 22 22 23 21 20 21 23 36 49 56 62 56 60 50 62
18 15 13 13 13 33 60 60 40 46 81 28 22 16 18 15 16 12 12 12 19 25 24 26 18 19 19 20 20 24 19 19 22 26 32 20 34 23 49 60 56 57 60 52 66
22 17 15 14 17 39 50 56 36 74 56 25 16 14 14 14 12 12 11 11 23 22 23 28 24 23 21 20 17 23 19 21 22 25 25 25 28 23 46 50 50 46 47 61 62
34 21 17 15 13 18 30 30 52 68 84 34 14 12 12 12 12 11 10 11 14 21 20 22 14 18 19 16 16 17 20 26 26 25 36 25 28 24 30 21 35 37 43 53 53
49 28 19 20 31 25 16 47 77 83 27 17 19 17 17 16 14 14 14 18 24 28 29 22 21 17 15 19 17 20 32 50 43 45 45 22 26 33 26 20 32 38 34 39 50
57 39 21 17 19 45 17 74 94 54 32 12 12 15 20 17 17 16 16 20 20 22 29 29 36 21 17 21 25 25 32 58 40 46 38 24 28 29 23 19 21 26 29 32 32
68 42 26 17 17 40 63 93 75 52 25 19 17 18 19 16 17 17 19 17 20 21 30 32 30 16 16 18 21 29 34 29 38 36 43 35 26 21 20 25 25 26 27 29 27
74 49 25 32 19 28 82 62 54 33 22 22 28 21 23 18 18 20 20 17 17 18 19 25 32 21 16 18 22 26 23 34 58 47 46 35 29 29 26 24 28 31 33 33 33
74 48 22 31 52 81 84 59 34 28 25 25 27 32 23 22 17 22 21 16 16 14 20 22 36 24 21 21 28 24 27 30 39 56 55 53 42 22 22 20 26 33 30 29 34
62 70 56 36 83 66 69 41 26 27 24 30 26 34 38 37 34 24 22 21 17 14 17 20 37 39 28 20 18 22 29 31 62 38 50 58 55 24 23 20 22 32 30 32 35
49 42 84 51 86 63 42 38 34 30 28 31 32 31 33 35 41 27 27 20 15 25 28 31 37 45 34 28 20 22 22 28 38 45 42 52 46 20 19 22 18 32 32 33 32
70 91 48 95 72 61 48 45 42 31 31 26 28 27 33 37 32 38 37 29 26 29 23 30 36 42 49 41 34 25 22 21 28 50 45 45 35 27 23 23 19 25 34 35 34
58 85 68 99 92 77 64 51 43 40 31 24 26 28 34 41 38 41 34 36 29 27 27 34 41 33 31 26 25 24 28 27 33 36 40 31 29 24 22 21 18 24 32 33 35
51 67 87 78 68 71 65 61 56 37 32 31 34 32 29 37 39 38 45 42 42 36 34 36 43 32 38 30 25 26 23 22 23 26 26 26 25 20 15 14 16 24 32 33 36
63 68 94 85 74 75 65 56 49 39 29 24 29 35 33 35 48 45 41 41 46 46 47 45 49 50 55 34 33 43 31 25 25 21 20 25 29 39 38 31 21 14 29 32 35

GFSSW_850_rhum_366.txt.gz
RH
6 6 6 6 6 6 6 6 8 10 14 28 30 24 17 10 12 11 10 6 17 16 16 13 10 18 27 29 30 30 61 76 72 66 57 32 31 33 34 45 43 46 46 54 69
6 6 6 5 5 5 5 5 6 6 9 17 28 28 22 13 11 10 5 6 12 15 16 10 11 21 25 28 27 28 53 53 50 47 50 34 31 33 37 43 50 49 53 61 70
6 6 5 5 4 4 4 4 5 5 7 14 20 27 25 17 13 9 5 7 13 17 16 14 19 28 27 24 23 20 41 42 36 35 33 34 31 33 36 45 48 59 66 67 75
6 6 5 5 4 4 4 3 3 4 5 11 14 21 25 19 24 17 6 12 16 17 15 10 14 26 27 23 18 19 28 35 27 32 30 32 24 32 34 34 32 37 50 63 70
7 7 6 6 5 5 4 3 3 3 4 6 13 15 23 19 12 14 9 14 15 16 12 10 19 28 27 18 16 22 29 29 29 26 24 24 28 32 34 30 40 52 58 67 68
8 8 7 6 6 6 5 4 4 4 3 5 10 14 22 32 14 16 13 14 14 14 9 11 24 27 26 18 19 26 36 36 31 30 27 30 31 30 42 39 49 57 64 65 65
9 9 8 8 8 8 7 6 6 6 3 5 7 14 20 12 17 18 15 14 14 12 9 16 25 23 19 19 18 22 37 38 38 32 32 27 31 50 43 47 58 61 63 64 64
10 10 9 9 9 10 9 8 8 8 4 5 8 17 17 13 11 18 17 18 16 12 12 21 21 20 20 18 20 24 43 44 36 36 31 29 40 55 50 55 59 62 63 65 66
12 11 10 10 10 11 11 10 10 8 8 7 12 18 15 20 17 13 15 17 17 16 17 18 21 20 20 28 34 42 45 44 42 35 32 30 34 52 58 54 57 61 66 68 62
13 11 11 11 11 12 12 18 32 27 16 15 30 32 11 13 14 12 12 16 18 16 17 17 18 27 31 35 42 42 48 50 41 30 39 40 38 53 60 56 56 74 58 59 51
15 13 11 11 12 10 14 27 47 48 31 14 15 20 18 15 14 16 13 13 14 16 22 17 27 32 28 30 27 32 36 29 43 32 30 35 34 44 56 58 88 83 68 57 57
23 15 12 11 12 12 54 56 64 64 56 26 28 23 13 14 23 10 10 10 17 23 21 22 30 26 24 25 26 30 34 37 38 34 33 35 39 36 56 53 83 77 64 54 81
35 20 14 12 13 14 58 57 62 66 70 26 10 18 14 17 23 12 9 10 20 26 25 28 24 21 23 25 27 27 27 25 29 24 29 25 26 52 53 59 70 73 59 60 60
52 28 18 13 14 28 53 62 59 60 67 40 34 15 13 18 18 14 12 13 21 25 28 27 20 22 24 26 24 30 21 22 24 25 29 22 35 25 62 64 69 80 66 62 61
64 42 23 17 15 26 55 61 51 76 42 16 23 11 9 18 14 14 11 13 25 24 26 32 26 28 26 25 23 27 22 22 24 27 24 24 30 30 58 61 60 77 72 60 49
67 61 33 22 15 19 41 30 70 65 56 34 16 18 23 18 14 12 13 13 14 23 22 28 19 22 24 20 18 18 23 31 30 32 39 28 29 34 50 34 38 53 64 51 50
71 69 52 30 18 30 36 33 72 67 25 24 20 16 20 20 19 15 15 20 26 33 34 25 23 20 17 20 20 23 38 53 46 45 45 27 30 30 32 26 25 45 61 54 53
81 72 61 32 18 28 44 86 88 41 43 23 18 19 20 19 19 19 19 20 24 26 34 32 34 22 18 22 23 27 36 60 45 48 39 27 32 30 27 24 23 34 41 53 58
91 73 70 27 22 22 62 96 63 66 33 24 18 21 26 22 20 22 26 23 24 24 29 39 32 20 20 19 22 27 37 32 38 40 47 39 30 23 29 32 31 34 45 55 52
93 82 66 34 25 25 92 55 57 48 29 24 29 24 30 24 25 25 25 22 18 24 19 27 32 23 20 18 22 24 28 38 59 54 52 44 29 33 28 30 34 36 33 42 42
94 76 52 32 57 54 72 62 35 27 28 34 32 32 35 31 25 28 22 18 19 22 23 27 34 24 20 23 35 28 33 40 48 56 55 53 46 30 27 28 36 34 28 21 42
91 84 41 29 81 87 68 47 26 25 23 32 34 36 37 37 40 31 28 20 14 16 29 30 41 37 24 21 22 24 31 38 59 37 59 56 48 25 27 23 26 26 25 26 28
91 59 54 47 81 86 54 36 35 34 32 32 38 33 32 35 37 37 29 28 19 25 29 33 41 46 31 26 25 22 23 35 46 51 44 57 47 26 23 25 21 23 26 29 32
91 89 42 80 62 54 56 45 44 29 35 34 35 32 34 36 35 38 34 30 29 27 28 30 43 41 40 34 33 28 25 31 38 57 40 52 35 28 26 26 22 19 28 33 35
97 81 68 99 90 85 62 51 44 48 34 32 37 38 37 42 37 41 40 35 31 26 28 38 40 36 36 29 29 29 26 26 32 35 40 31 35 28 26 25 18 18 18 34 34
92 67 87 94 82 91 80 77 64 42 46 42 44 32 33 42 41 39 42 46 40 34 32 41 44 33 35 29 28 27 27 25 27 28 34 31 32 52 36 32 40 38 32 35 33
98 78 87 87 92 89 91 74 60 52 46 42 38 35 35 36 44 43 42 47 46 43 45 46 49 54 44 34 37 42 32 28 24 23 24 28 39 55 52 51 52 51 46 42 42

GFSSW_850_rhum_369.txt.gz
RH
6 6 6 6 5 5 5 5 5 6 8 11 24 27 23 16 12 12 10 7 10 21 17 16 18 17 18 27 33 33 68 80 68 71 50 43 38 35 39 46 47 47 48 48 67
6 5 5 5 5 4 4 4 4 5 6 7 15 25 25 20 14 13 5 6 8 18 16 14 13 23 25 30 32 35 57 59 55 54 48 33 34 38 44 50 52 53 55 54 68
7 6 5 5 4 4 4 4 4 4 5 6 11 18 25 24 18 8 6 5 7 13 15 17 14 25 28 28 26 28 37 41 37 42 38 37 35 35 47 52 47 56 60 65 74
8 7 6 6 5 5 4 4 4 4 4 5 8 14 19 23 13 18 6 5 8 16 18 16 15 22 30 27 22 23 25 34 31 36 36 38 32 37 38 35 35 41 42 59 76
9 8 8 7 6 6 6 5 5 4 5 4 6 12 17 23 13 12 7 6 14 17 16 15 15 25 32 25 20 27 32 34 33 30 30 26 33 38 39 35 37 52 60 63 73
10 10 9 8 8 8 8 8 7 6 7 4 5 9 16 30 12 12 10 14 15 15 15 16 15 22 29 26 21 32 36 36 32 29 32 32 35 34 43 46 59 58 63 65 64
12 10 10 9 9 9 10 10 9 8 9 6 5 8 15 12 13 17 14 12 14 13 14 13 14 26 22 22 22 32 35 37 34 32 30 27 31 43 55 58 63 58 63 63 62
15 12 10 10 10 10 11 11 11 12 9 6 6 10 15 7 12 16 17 16 15 16 16 13 17 24 23 21 25 35 42 41 32 36 31 29 38 63 59 59 69 72 69 56 66
23 15 12 11 10 11 12 12 15 22 9 11 11 16 15 12 11 14 17 17 18 18 17 22 22 22 23 30 33 39 44 45 35 39 35 33 34 67 61 60 68 69 69 62 66
38 23 14 12 11 11 12 14 25 45 25 21 26 29 11 11 16 11 14 14 17 20 21 20 20 28 34 35 41 35 43 43 43 30 39 39 41 69 60 62 67 67 68 64 60
47 38 21 14 11 12 12 19 31 45 41 16 15 20 18 16 17 17 13 13 15 19 24 20 28 32 28 32 29 30 38 39 34 34 31 34 39 71 66 64 75 73 73 61 61
59 48 33 17 12 12 23 59 90 91 78 23 32 24 12 17 23 14 15 12 17 25 23 24 32 26 24 29 28 30 33 36 35 36 35 37 40 54 72 70 77 75 73 61 64
68 58 48 23 14 12 35 60 69 79 82 38 14 16 26 17 21 16 12 12 22 26 26 29 24 23 25 25 28 30 33 34 35 25 32 25 26 56 68 79 83 70 65 58 56
77 66 60 32 16 16 36 60 64 74 78 40 39 17 16 19 24 15 12 11 22 28 28 26 21 23 26 26 27 32 28 26 28 28 34 22 35 26 69 89 87 78 79 64 58
87 79 66 60 27 19 42 58 54 78 50 17 31 14 9 17 16 16 14 13 27 27 28 31 29 28 28 25 25 30 25 28 27 28 28 28 31 27 70 75 87 83 78 66 57
86 89 79 68 43 20 24 43 69 74 60 27 24 23 28 20 16 14 16 14 15 25 24 26 22 26 26 24 26 22 26 33 34 37 42 31 30 31 66 55 55 75 76 63 54
86 91 96 73 56 37 41 38 87 77 26 17 25 23 28 27 22 16 21 22 30 33 36 27 26 21 19 21 20 28 37 51 46 50 52 30 35 30 26 39 38 61 69 57 50
91 97 96 82 62 45 35 92 89 42 35 28 20 22 29 25 25 22 20 23 23 28 37 37 37 26 22 23 23 34 38 60 48 52 46 29 33 30 28 29 24 26 47 51 53
89 97 99 71 67 63 51 98 53 57 31 25 19 25 24 22 24 23 27 27 22 30 30 42 35 22 21 20 22 29 38 34 48 46 44 38 33 25 29 38 45 48 48 48 44
100 100 97 75 74 58 89 59 50 48 39 24 25 24 33 28 25 28 31 25 20 28 22 30 32 25 20 20 22 29 33 42 61 58 51 48 40 34 30 31 36 57 51 39 37
100 99 95 83 71 59 80 68 39 26 28 36 37 32 33 30 30 32 25 20 22 30 24 31 31 24 21 26 29 32 38 46 51 58 56 51 46 33 32 32 35 35 34 37 35
100 99 89 54 84 60 52 49 32 25 21 28 34 39 41 39 39 31 30 23 17 27 28 29 40 33 27 23 24 32 37 40 59 44 59 53 44 28 31 31 29 26 23 28 27
99 98 82 58 86 86 40 38 31 36 28 34 39 36 35 39 36 38 35 29 24 28 32 34 40 41 35 28 25 25 32 41 49 52 64 61 49 27 27 26 21 21 20 26 33
100 99 93 92 63 61 60 48 40 26 32 32 38 34 34 38 34 34 37 32 31 27 26 25 44 34 31 30 35 28 29 43 42 56 50 51 34 27 26 28 27 22 18 18 29
100 99 80 100 97 79 61 47 44 49 28 28 40 38 38 43 42 44 38 36 32 30 33 38 40 37 35 28 34 29 30 38 35 36 40 33 39 28 27 30 38 31 23 20 27
99 99 95 96 84 85 80 87 58 39 45 37 42 34 43 45 43 39 37 43 39 35 33 41 46 36 37 32 30 28 31 34 33 34 32 30 32 43 49 49 50 49 47 43 39
100 98 100 87 91 95 80 72 71 50 43 39 44 43 41 43 31 26 32 41 43 43 43 41 52 48 46 38 33 39 36 29 26 27 28 34 31 53 53 58 57 54 50 48 44

GFSSW_850_rhum_375.txt.gz
RH
9 8 8 7 6 6 5 4 4 4 4 5 6 8 16 21 19 16 14 7 7 17 16 18 18 18 15 28 33 35 37 43 43 52 38 44 36 44 40 50 55 51 53 48 51
10 10 9 9 8 7 7 6 5 4 4 4 5 6 9 17 19 13 11 12 7 9 19 20 20 19 18 26 32 34 40 36 38 41 35 42 38 42 42 48 53 63 56 55 57
12 11 10 10 9 9 8 8 8 7 5 4 5 5 7 13 18 11 15 12 9 8 17 18 17 23 30 34 35 38 32 32 31 39 40 35 41 44 40 45 42 46 51 61 60
18 14 12 10 9 9 9 9 10 10 8 6 5 6 6 12 19 16 13 13 9 8 14 16 20 28 31 29 30 30 29 30 28 35 43 36 38 39 42 31 34 39 40 52 59
34 24 16 12 10 9 9 9 10 11 11 10 8 7 7 13 14 13 11 10 8 8 13 15 20 26 29 28 26 26 23 37 35 38 41 38 35 35 40 39 37 39 50 48 59
50 41 28 19 14 11 9 9 10 11 12 14 12 9 8 22 11 15 13 8 7 8 11 18 15 18 28 30 25 24 31 36 36 39 37 31 37 39 38 40 43 48 55 57 59
49 47 40 32 22 15 11 9 10 11 12 19 10 10 8 5 9 15 17 8 7 9 12 17 14 20 27 26 24 37 35 32 34 34 32 32 32 36 40 45 66 65 79 78 77
42 43 41 37 31 23 13 10 10 11 15 25 14 13 7 4 7 7 18 17 8 9 18 17 17 25 27 24 30 32 34 34 29 36 35 29 30 27 42 58 66 82 89 95 74
46 42 38 32 35 29 18 12 10 12 24 36 26 15 8 7 8 7 10 15 14 16 17 18 20 25 27 26 28 34 31 38 32 35 32 30 29 29 55 66 64 75 84 94 86
34 44 41 28 29 32 22 12 13 25 44 45 34 26 7 9 16 18 11 17 16 16 21 22 29 27 29 28 34 35 37 38 34 29 35 34 30 30 55 66 62 71 78 89 77
41 42 47 27 30 36 20 15 27 40 44 49 35 24 10 10 18 20 18 21 21 23 27 26 28 31 30 31 27 27 33 33 30 28 31 30 30 28 42 66 64 71 76 84 75
30 45 47 27 31 35 42 57 56 59 76 31 31 36 30 29 28 16 18 22 22 27 28 28 31 29 27 28 27 29 31 30 26 26 33 33 30 34 49 56 59 63 74 76 83
28 36 61 34 25 34 55 50 40 64 99 79 25 24 12 16 27 16 18 19 24 28 28 29 25 26 26 30 30 30 31 30 26 27 31 31 26 33 42 63 69 70 68 73 76
30 34 49 61 43 48 49 50 34 81 96 65 46 29 22 14 34 8 13 16 25 25 28 26 23 27 28 28 26 32 26 26 27 28 29 25 30 25 29 42 51 51 63 72 76
37 36 59 77 95 69 60 33 33 98 61 22 30 23 29 24 13 22 12 16 24 26 28 29 30 28 28 25 26 25 23 24 25 29 29 26 28 24 49 32 27 32 52 70 72
44 42 54 73 88 81 68 38 66 70 69 27 24 29 39 32 20 24 18 16 17 26 30 26 26 22 22 25 22 26 26 32 34 32 39 30 28 26 22 26 29 38 42 54 54
43 49 46 76 96 77 80 43 90 89 30 21 17 30 33 34 24 23 25 26 27 31 32 31 30 26 24 24 26 26 33 43 45 46 43 32 30 25 22 20 29 29 32 46 43
41 47 48 52 72 84 93 58 88 54 40 23 26 28 32 29 27 24 28 25 28 25 25 30 35 28 26 25 26 33 30 49 46 46 37 32 32 24 21 25 34 33 29 35 37
70 54 50 48 56 79 95 93 60 45 38 29 18 24 28 29 25 25 32 26 22 27 28 32 27 26 25 23 22 37 35 32 45 49 39 30 27 22 22 26 32 32 35 32 32
84 90 74 45 57 91 99 77 55 37 36 37 32 23 25 31 30 30 31 24 23 26 24 34 36 27 24 23 27 28 31 41 51 59 43 36 36 24 23 23 28 33 34 28 26
90 98 68 58 81 99 96 86 56 34 32 38 38 34 24 24 31 33 27 21 21 31 28 35 36 29 29 29 28 36 38 46 42 46 39 37 32 27 21 21 26 30 30 25 23
94 90 71 80 97 95 93 83 57 47 34 29 35 33 36 35 25 33 30 25 22 25 25 32 43 42 28 26 26 22 28 32 45 49 53 41 29 24 26 26 30 32 32 25 22
96 85 80 80 96 94 78 64 66 59 41 37 32 31 35 49 44 42 35 27 25 26 26 36 43 37 26 25 31 32 35 33 45 48 44 42 32 27 28 28 31 31 25 20 18
99 98 98 99 91 82 84 82 78 62 58 51 34 32 37 43 39 45 44 38 31 29 26 23 43 26 29 24 33 39 43 44 32 46 35 36 27 24 26 30 30 31 24 20 17
99 95 80 87 95 92 77 81 83 78 50 42 46 35 36 49 45 47 41 36 35 44 40 34 31 34 22 25 23 18 27 41 37 31 36 27 31 23 23 30 31 42 35 30 23
98 97 97 92 80 97 98 87 83 67 57 45 48 34 33 44 46 49 40 41 41 41 43 43 37 38 40 26 26 24 24 33 32 31 28 27 30 29 44 49 52 55 47 40 35
98 98 100 79 83 98 94 83 72 75 72 47 38 40 38 36 33 39 40 37 44 43 48 45 51 46 32 34 31 36 32 30 31 32 26 33 27 48 53 51 54 58 52 49 44

GFSSW_850_rhum_381.txt.gz
RH
11 10 9 8 7 7 7 8 8 8 6 6 5 4 5 6 9 15 20 16 14 10 8 16 18 17 18 20 23 21 20 21 19 21 24 20 18 19 22 24 27 31 34 44 64
16 15 12 10 10 8 8 7 8 9 9 9 7 5 4 5 6 17 15 18 14 8 11 14 14 15 16 19 21 19 17 17 15 15 17 18 19 19 20 21 26 36 46 53 66
26 23 18 15 13 10 9 8 8 8 9 10 10 8 5 4 16 13 15 16 12 8 14 13 13 13 15 16 19 18 18 13 14 16 17 17 18 19 18 20 21 31 47 59 65
14 20 23 22 19 15 12 10 8 8 8 10 11 13 9 5 16 16 15 14 11 9 12 11 14 15 14 14 17 19 15 14 13 14 16 15 16 18 18 19 24 26 44 57 64
4 4 4 7 16 20 17 13 10 8 8 9 11 14 12 25 13 10 15 12 13 11 11 10 14 13 14 14 17 19 16 14 13 15 16 17 17 17 18 19 26 29 44 53 59
3 2 2 2 2 4 13 18 14 9 8 9 11 15 24 18 9 17 10 10 13 14 10 10 11 12 13 13 16 18 18 14 14 17 17 20 17 19 17 26 34 38 41 48 56
2 2 1 1 1 1 2 4 15 14 9 8 10 16 28 16 11 20 19 19 22 16 10 10 11 10 11 13 15 18 18 15 14 17 18 19 19 17 17 29 34 39 41 45 52
2 2 1 1 1 1 1 1 3 14 11 9 12 20 27 13 9 13 19 20 16 14 10 8 12 12 11 10 14 17 17 20 14 16 17 19 19 14 23 27 29 36 40 45 52
1 1 1 1 1 1 1 1 3 7 13 11 22 43 18 12 11 11 12 12 15 12 10 10 13 14 11 12 18 16 20 19 17 13 17 19 19 16 20 20 23 35 40 46 51
1 1 1 1 1 1 2 3 10 16 22 22 46 39 24 10 14 20 19 15 18 14 14 18 16 14 12 13 17 16 17 16 17 17 18 17 18 12 18 19 20 29 38 47 52
3 2 1 1 1 10 4 28 24 40 28 27 30 29 25 14 17 16 19 18 18 13 12 14 16 16 11 12 11 9 10 14 12 11 21 18 15 13 11 18 19 23 36 49 54
6 3 2 4 22 23 44 45 61 55 47 25 19 20 19 19 25 17 16 17 19 19 11 13 19 13 10 9 10 11 12 11 11 11 12 15 16 12 11 11 15 20 31 45 53
11 6 2 6 23 60 63 67 71 72 55 24 22 21 15 14 19 16 10 16 15 20 14 15 13 12 12 12 12 13 16 14 13 12 12 16 17 13 11 11 14 18 26 38 48
18 15 10 11 49 47 61 67 78 88 44 10 24 24 25 17 18 17 9 13 14 17 16 15 12 14 15 14 11 14 14 13 14 14 17 15 22 13 11 11 15 20 24 32 42
28 20 16 33 68 56 50 43 76 97 96 7 12 20 18 18 10 8 12 10 13 13 15 18 14 15 16 15 12 15 13 14 16 17 16 15 16 12 10 12 15 14 22 26 36
27 26 18 53 62 47 44 38 83 66 85 7 7 10 13 16 15 11 12 9 10 11 11 14 10 12 13 12 12 13 13 14 16 20 26 16 15 14 12 18 14 11 13 24 32
31 30 24 67 59 18 34 68 51 100 10 5 4 3 4 7 8 10 11 14 15 16 17 12 13 11 12 14 13 12 17 30 31 34 30 15 16 14 11 10 14 11 10 15 29
35 35 53 66 72 22 74 40 100 26 14 6 5 4 5 4 5 6 8 13 12 13 12 14 16 12 11 15 16 15 18 32 37 28 22 15 19 14 10 9 11 11 10 15 23
54 81 73 67 87 60 51 62 41 15 8 8 7 8 7 5 7 7 8 9 9 9 16 14 13 8 10 11 14 16 22 18 26 23 24 17 13 11 12 11 11 12 12 17 24
84 87 70 76 92 74 48 35 21 14 12 14 18 12 12 8 8 8 8 7 10 8 8 13 19 9 7 10 13 15 14 27 27 46 35 20 17 18 16 15 13 11 11 19 28
87 67 70 82 88 87 80 45 31 24 22 21 21 21 18 17 12 14 10 7 6 9 9 9 17 16 10 12 16 18 20 19 21 27 32 30 20 13 13 14 14 11 10 16 26
96 80 87 84 80 70 64 45 39 33 30 27 27 27 28 26 27 22 16 12 6 6 11 10 18 21 15 10 11 14 18 18 28 31 25 25 22 10 11 12 11 10 10 13 21
96 76 67 78 85 63 42 36 31 28 26 27 30 27 26 30 38 28 25 19 16 10 12 11 18 27 20 14 12 18 16 16 21 22 26 32 25 11 12 12 12 11 10 15 21
95 88 56 78 69 60 52 45 39 29 28 27 27 28 33 33 28 50 42 21 21 17 15 21 20 20 31 20 16 20 17 17 22 30 30 24 19 14 14 14 12 13 13 19 22
96 76 57 76 64 61 54 51 53 45 31 30 32 29 39 46 35 42 44 29 26 25 26 25 28 24 18 15 12 13 16 17 18 21 27 23 17 14 12 14 13 13 16 16 18
98 97 77 60 55 59 61 62 46 38 33 35 51 36 40 54 65 44 39 38 34 28 53 36 31 25 26 16 14 14 11 15 15 14 16 18 17 11 11 13 13 13 14 15 16
98 94 97 79 63 62 60 54 50 39 45 52 48 49 54 57 44 53 47 37 34 52 48 63 51 31 34 20 17 24 14 10 13 12 13 18 17 12 12 12 13 13 14 16 19

GFSSW_850_rhum_384.txt.gz
RH
16 14 12 11 10 9 8 9 8 7 7 7 6 6 4 4 6 8 11 14 16 14 10 9 13 15 16 18 18 19 23 26 42 39 26 19 17 18 19 24 23 26 40 49 59
23 22 20 17 14 13 11 9 8 8 8 8 8 8 7 4 4 5 9 17 18 16 12 11 12 14 14 16 18 19 22 23 26 21 26 21 17 17 19 18 25 37 44 53 56
5 8 13 18 19 18 15 12 10 8 8 8 9 9 10 7 12 17 15 13 14 13 8 11 10 12 12 14 15 18 21 18 16 13 14 14 15 20 23 18 43 42 48 58 55
2 2 2 2 4 10 16 16 12 10 8 8 9 10 11 10 18 17 14 13 16 13 10 13 12 11 11 13 14 16 16 15 13 12 14 13 13 19 19 23 28 39 46 56 55
1 1 1 1 1 1 2 8 14 12 10 8 8 11 13 29 17 10 10 13 12 11 14 10 10 12 14 13 14 14 15 16 13 12 12 13 14 15 16 26 33 36 46 53 53
1 1 1 1 1 1 1 1 2 11 13 9 8 11 21 27 10 9 16 17 18 15 14 12 8 9 11 12 13 13 14 16 16 13 13 14 15 15 15 24 34 39 47 51 52
1 1 1 1 1 1 1 1 1 2 12 11 9 13 32 19 11 10 17 16 20 17 16 11 9 9 10 11 12 12 15 16 15 14 14 15 18 16 14 26 29 35 42 47 51
1 1 1 1 1 1 1 1 1 1 3 13 11 18 33 12 12 9 9 16 17 18 17 14 9 10 11 10 11 13 15 24 17 14 13 16 22 15 20 27 29 32 35 44 48
1 1 1 1 1 1 1 2 2 3 6 12 18 44 25 15 12 9 9 9 11 14 13 12 8 9 11 12 14 12 19 20 19 13 13 16 19 14 21 23 25 30 34 40 46
1 1 1 1 1 2 2 4 14 27 34 37 38 39 29 13 11 14 16 14 12 15 11 10 8 9 12 14 18 14 18 19 18 13 13 16 25 16 17 18 17 29 33 39 46
2 2 1 1 6 8 4 11 22 48 28 22 24 28 23 17 13 15 13 16 12 16 15 12 18 17 13 14 12 10 12 13 12 11 13 20 23 24 23 17 17 27 33 41 47
2 2 1 2 13 50 55 52 61 57 54 17 15 14 11 11 13 14 13 17 15 19 14 14 18 16 13 11 10 11 13 13 10 8 12 18 21 20 16 19 19 20 33 43 47
2 2 1 3 18 42 59 53 62 77 58 26 14 16 13 11 10 11 12 12 15 18 17 17 12 12 15 15 15 15 14 14 12 11 11 15 20 17 15 12 13 21 34 45 48
4 5 5 7 43 45 56 49 65 90 58 13 18 17 18 17 15 11 11 12 11 16 14 16 12 10 17 18 16 20 12 12 12 17 22 15 25 15 13 13 11 15 28 37 46
14 12 10 44 39 57 38 36 66 89 98 6 12 16 12 14 10 8 11 12 13 12 13 16 15 14 14 13 15 18 14 14 14 19 21 18 21 16 16 16 11 13 18 31 41
17 18 14 45 59 56 23 30 81 76 89 8 6 8 8 9 10 10 9 9 10 10 11 12 9 10 14 11 11 12 14 15 16 20 28 21 23 22 17 15 11 17 21 20 36
19 19 21 58 64 50 15 67 56 98 14 6 4 3 4 4 3 5 7 11 12 15 16 12 11 9 10 13 12 13 20 30 33 31 30 19 26 21 16 12 14 20 25 22 29
26 24 54 71 68 37 56 49 100 30 16 9 8 8 7 5 5 4 4 6 6 11 13 16 18 10 8 12 14 16 20 32 39 32 27 18 32 27 14 11 10 20 20 21 28
30 67 70 70 49 72 57 66 45 18 12 14 14 12 9 6 5 6 6 7 6 7 13 17 16 9 8 8 10 16 22 17 27 26 33 26 23 17 12 10 9 16 16 16 29
58 76 60 70 30 79 49 42 24 16 14 18 24 15 14 11 11 10 10 8 6 6 8 12 19 10 9 8 9 14 14 27 26 43 42 28 26 21 18 18 11 12 13 11 20
85 66 75 80 51 59 75 46 29 23 24 25 22 24 23 23 20 19 15 12 10 9 9 10 16 16 12 12 14 14 20 21 23 28 38 40 30 17 16 20 33 28 13 13 15
96 70 86 77 67 65 66 48 38 32 30 28 28 29 30 28 29 26 24 19 15 15 17 15 18 21 15 12 9 11 16 22 33 34 29 33 31 15 16 27 28 24 17 13 21
95 67 57 72 85 62 44 40 36 32 28 26 27 24 24 28 34 27 26 19 20 20 22 24 29 29 23 17 13 16 15 19 23 25 31 37 31 16 15 15 26 21 13 12 24
98 87 48 61 70 62 58 50 44 32 29 26 26 24 26 29 25 31 28 23 20 20 28 36 37 42 42 29 25 24 17 16 22 34 30 26 23 18 15 15 25 25 20 12 25
94 71 51 76 58 52 54 73 63 54 38 37 37 31 30 37 34 31 28 26 22 21 27 39 53 39 35 26 21 19 16 15 20 21 30 25 22 18 15 15 16 13 12 16 19
95 90 65 56 50 57 64 59 54 47 39 42 45 31 34 42 36 47 36 36 38 34 35 34 53 65 56 35 27 22 22 14 14 17 17 18 21 14 13 13 16 15 13 16 19
88 79 90 75 62 64 65 50 48 40 38 30 34 38 38 33 35 39 46 56 59 49 60 76 96 76 71 36 30 32 26 16 15 14 16 20 16 14 15 15 16 16 15 17 18